OSSERVATORIO METEOROLOGICO COMUNALE "E. Torricelli" - Faenza (Italia)

Latitudine: 44° 17' 44.97" N - Longitudine: 11° 52' 33.27" E - Altitudine: 36 m s.l.m.

21 ottobre 2018

Temperatura
(°C)
Umidità
(%)
Pressione
(hPa)
Velocità vento
(km/h)
Pioggia Rad. Sol.
(W/m2)
Max Min Med Max Min Med Max Min Max Orario Dir.
Med.
Totale
(mm)
Intensità
(mm/h)
Max
19,3 8,0 13,4 100 61 86 1021 1015 52 16:10 207 5,0 7,2 672

Orario Temperatura
(°C)
Umidità
(%)
Pressione
(hPa)
Velocità vento
(km/h)
Dir. vento
(°)
Pioggia
(mm)
Rad. Sol.
(W/m2)
0:00 13,9 91 1019,8 6 240 - -
0:15 13,9 91 1019,8 7 225 - -
0:30 13,8 90 1019,6 13 240 - -
0:45 13,7 90 1019,5 6 218 - -
1:00 13,5 90 1019,4 7 215 - -
1:15 13,4 90 1019,3 5 235 - -
1:30 13,3 91 1019,2 8 225 - -
1:45 13,3 91 1019,2 11 240 - -
2:00 13,3 90 1019,1 4 240 - -
2:15 13,3 90 1018,9 6 240 - -
2:30 13,1 90 1018,6 5 273 - -
2:45 13,3 89 1018,3 10 233 - -
3:00 13,1 88 1018,4 7 250 - -
3:15 13,1 88 1018,3 10 248 - -
3:30 12,9 89 1018,2 4 223 - -
3:45 12,6 88 1018,0 3 218 - -
4:00 12,5 91 1017,8 4 218 - -
4:15 12,4 92 1017,9 2 205 - -
4:30 12,4 93 1017,8 4 215 - -
4:45 12,3 94 1017,8 4 163 - -
5:00 12,1 94 1017,7 2 60 - -
5:15 11,9 94 1017,6 1 318 - -
5:30 11,9 95 1017,4 3 230 - -
5:45 11,9 96 1017,3 6 250 - -
6:00 12,2 96 1017,1 7 198 - -
6:15 12,1 94 1016,9 8 223 - -
6:30 12,1 91 1017,0 4 288 - -
6:45 11,9 90 1017,0 9 235 - 7,1
7:00 11,9 89 1017,3 4 273 - 20,0
7:15 11,8 89 1017,3 5 215 - 36,0
7:30 11,9 91 1017,7 3 243 - 55,6
7:45 12,0 93 1017,8 1 320 - 68,4
8:00 12,1 95 1018,2 0 - - 105,2
8:15 12,4 98 1018,0 4 328 - 225,6
8:30 13,2 95 1018,0 2 208 - 171,1
8:45 14,0 90 1018,1 1 248 - 224,7
9:00 14,4 88 1018,2 1 45 - 202,4
9:15 14,7 85 1018,2 1 45 - 149,3
9:30 15,2 83 1018,0 1 103 - 266,7
9:45 15,8 77 1017,9 1 210 - 234,2
10:00 16,1 76 1017,7 1 278 - 288,3
10:15 16,7 73 1017,6 4 345 - 431,9
10:30 16,9 70 1017,5 1 330 - 287,8
10:45 17,5 70 1017,2 1 65 - 309,8
11:00 17,8 65 1017,2 2 300 - 363,5
11:15 17,7 65 1017,1 3 78 - 241,2
11:30 17,8 69 1016,9 4 80 - 192,1
11:45 17,6 67 1016,7 1 330 - 184,1
12:00 17,6 68 1016,5 1 313 - 129,3
12:15 17,5 67 1016,5 1 43 - 181,9
12:30 17,8 71 1016,1 4 330 - 576,6
12:45 18,2 68 1015,9 4 343 - 339,1
13:00 18,2 67 1015,9 1 353 - 291,5
13:15 18,7 66 1015,8 2 338 - 472,8
13:30 18,7 66 1015,7 4 15 - 431,2
13:45 18,8 64 1015,5 4 118 - 452,5
14:00 18,9 66 1015,5 1 55 - 215,5
14:15 19,0 66 1015,5 5 65 - 269,4
14:30 18,9 68 1015,6 5 93 - 173,1
14:45 18,7 71 1015,5 2 93 - 209,9
15:00 18,7 71 1015,7 6 58 - 162,0
15:15 15,7 75 1016,4 9 123 - 83,8
15:30 14,5 71 1016,8 21 118 - 52,6
15:45 14,1 67 1016,8 6 170 - 92,2
16:00 14,0 70 1017,7 6 93 - 9,0
16:15 13,9 65 1018,3 37 108 - 3,7
16:30 13,7 64 1018,5 15 98 - 2,5
16:45 13,0 68 1019,0 13 115 - -
17:00 12,6 75 1019,6 9 58 0,2 -
17:15 11,8 87 1019,5 6 93 0,6 0,1
17:30 11,4 96 1019,5 6 158 1,2 -
17:45 11,4 100 1019,6 3 113 1,2 -
18:00 11,4 100 1021,2 2 50 1,4 -
18:15 11,3 100 1020,8 4 173 3,2 -
18:30 10,9 100 1020,9 4 113 3,8 -
18:45 10,8 100 1020,9 5 228 4,2 -
19:00 10,9 100 1020,7 4 233 4,6 -
19:15 10,8 100 1020,0 6 203 4,8 -
19:30 10,5 100 1019,6 8 208 5,0 -
19:45 10,3 100 1019,6 4 235 5,0 -
20:00 10,0 100 1019,7 3 285 5,0 -
20:15 9,6 100 1019,5 3 323 5,0 -
20:30 9,2 100 1019,6 1 258 5,0 -
20:45 9,0 100 1019,6 1 308 5,0 -
21:00 8,9 100 1019,8 1 335 5,0 -
21:15 8,7 100 1019,8 0 - 5,0 -
21:30 8,7 100 1019,9 4 305 5,0 -
21:45 8,6 100 1019,9 3 333 5,0 -
22:00 8,3 100 1020,1 3 325 5,0 -
22:15 8,1 100 1020,0 6 305 5,0 -
22:30 8,1 100 1019,9 4 263 5,0 -
22:45 8,2 100 1019,9 4 265 5,0 -
23:00 8,1 100 1019,8 5 258 5,0 -
23:15 - - - - - - -
23:30 - - - - - - -
23:45 - - - - - - -
24:00 - - - - - - -